Jackson, MN

5:35 AM CDT on August 26, 2016 (GMT -0500)
Jackson Municipal

Weather History for KMJQ - March, 2014

Change the Weather History Date:

Friday, March 7, 2014

  Actual Average Record
Temperature  
Mean Temperature 26 °F -  
Max Temperature 33 °F 29 °F 68 °F (2016)
Min Temperature 17 °F 16 °F -7 °F (2008)
Degree Days  
Heating Degree Days 39    
Moisture  
Dew Point 22 °F    
Average Humidity 83    
Maximum Humidity 93    
Minimum Humidity 74    
Precipitation  
Precipitation 0.00 in - - ()
Sea Level Pressure  
Sea Level Pressure 29.92 in    
Wind  
Wind Speed 17 mph (NW)    
Max Wind Speed 36 mph    
Max Gust Speed 43 mph    
Visibility 6 miles    
Events      
Averages and records for this station are not official NWS values.
T = Trace of Precipitation, MM = Missing Value Source: NWS Daily Summary

Daily Weather History Graph

Daily Weather History Graph

Search for Another Location

Airport or City:

Trip Planner

Search our weather history database for the weather conditions in past years. The results will help you decide how hot, cold, wet, or windy it might be!

Date:

Astronomy

Mar. 07, 2014 Rise Set
Actual Time 6:46 AM CST 6:16 PM CST
Civil Twilight 6:17 AM CST 6:45 PM CST
Nautical Twilight 5:44 AM CST 7:18 PM CST
Astronomical Twilight 5:11 AM CST 7:51 PM CST
Moon 10:28 AM CST (3/7) 12:33 AM CST (3/7)
Length of Visible Light 12h 27m
Length of Day
11h 30m
Waxing Crescent, 42% of the Moon is Illuminated
Mar 7
Waxing Crescent
Mar 8
First Quarter
Mar 16
Full
Mar 23
Last Quarter
Mar 30
New

Hourly Weather History & Observations

Time (CST) Temp. Windchill Dew Point Humidity Pressure Visibility Wind Dir Wind Speed Gust Speed Precip Events Conditions
12:13 AM 30.2 °F 17.8 °F 28.4 °F 93% 29.73 in 3.0 mi South 19.6 mph - N/A   Clear
12:33 AM 32.0 °F 20.5 °F 28.4 °F 87% 29.72 in 3.0 mi South 18.4 mph - N/A   Clear
12:52 AM 32.0 °F 20.5 °F 28.4 °F 87% 29.71 in 3.0 mi South 18.4 mph - N/A   Clear
1:13 AM 32.0 °F 20.8 °F 28.4 °F 87% 29.72 in 3.0 mi South 17.3 mph - N/A   Clear
1:33 AM 32.0 °F 20.1 °F 28.4 °F 87% 29.72 in 3.0 mi South 19.6 mph - N/A   Clear
1:52 AM 32.0 °F 20.8 °F 28.4 °F 87% 29.72 in 3.0 mi SSW 17.3 mph - N/A   Clear
2:13 AM 32.0 °F 22.1 °F 28.4 °F 87% 29.72 in 3.0 mi South 13.8 mph - N/A   Clear
2:33 AM 32.0 °F 23.6 °F 28.4 °F 87% 29.72 in 3.0 mi SSW 10.4 mph - N/A   Clear
2:52 AM 32.0 °F 24.2 °F 28.4 °F 87% 29.72 in 3.0 mi South 9.2 mph - N/A   Clear
3:13 AM 32.0 °F 23.6 °F 28.4 °F 87% 29.72 in 3.0 mi SSW 10.4 mph - N/A   Scattered Clouds
3:33 AM 32.0 °F 24.2 °F 28.4 °F 87% 29.72 in 4.0 mi SSW 9.2 mph - N/A   Mostly Cloudy
3:52 AM 32.0 °F 27.5 °F 28.4 °F 87% 29.73 in 4.0 mi SSW 4.6 mph - N/A   Overcast
4:13 AM 32.0 °F 27.5 °F 28.4 °F 87% 29.74 in 4.0 mi SW 4.6 mph - N/A   Mostly Cloudy
4:33 AM 32.0 °F - 28.4 °F 87% 29.74 in 4.0 mi Calm Calm - N/A   Mostly Cloudy
4:52 AM 32.0 °F 27.5 °F 28.4 °F 87% 29.74 in 4.0 mi WSW 4.6 mph - N/A   Mostly Cloudy
5:13 AM 32.0 °F 27.5 °F 30.2 °F 93% 29.74 in 5.0 mi West 4.6 mph - N/A   Overcast
5:33 AM 32.0 °F 24.8 °F 30.2 °F 93% 29.76 in 4.0 mi West 8.1 mph - N/A   Overcast
5:52 AM 32.0 °F 25.6 °F 30.2 °F 93% 29.76 in 4.0 mi West 6.9 mph - N/A   Overcast
6:13 AM 33.8 °F 27.0 °F 30.2 °F 87% 29.76 in 4.0 mi West 8.1 mph - N/A   Overcast
6:33 AM 32.0 °F 24.8 °F 30.2 °F 93% 29.77 in 4.0 mi West 8.1 mph - N/A   Mostly Cloudy
6:52 AM 33.8 °F 26.4 °F 30.2 °F 87% 29.77 in 3.0 mi NW 9.2 mph - N/A   Mostly Cloudy
7:13 AM 33.8 °F 23.9 °F 30.2 °F 87% 29.79 in 3.0 mi NW 15.0 mph - N/A   Mostly Cloudy
7:32 AM 33.8 °F 21.0 °F 30.2 °F 87% 29.80 in 3.0 mi NNW 25.3 mph 29.9 mph N/A   Overcast
7:52 AM 33.8 °F 21.6 °F 30.2 °F 87% 29.81 in 2.0 mi NNW 23.0 mph 32.2 mph N/A   Overcast
8:12 AM 32.0 °F 18.4 °F 30.2 °F 93% 29.82 in 1.5 mi NNW 26.5 mph 38.0 mph N/A   Overcast
8:32 AM 32.0 °F 19.2 °F 28.4 °F 87% 29.85 in 2.0 mi NNW 23.0 mph 38.0 mph N/A   Overcast
8:53 AM 32.0 °F 18.9 °F 28.4 °F 87% 29.85 in 2.5 mi NNW 24.2 mph 33.4 mph N/A   Overcast
9:12 AM 30.2 °F 16.8 °F 26.6 °F 86% 29.86 in 2.5 mi NNW 23.0 mph 34.5 mph N/A   Haze
9:33 AM 30.2 °F 17.1 °F 24.8 °F 80% 29.86 in 2.5 mi NNW 21.9 mph 39.1 mph N/A   Haze
9:53 AM 30.2 °F 14.1 °F 23.0 °F 75% 29.86 in 2.0 mi NNW 35.7 mph 42.6 mph N/A   Haze
10:12 AM 30.2 °F 17.1 °F 23.0 °F 75% 29.87 in 2.0 mi NNW 21.9 mph 36.8 mph N/A   Haze
10:33 AM 28.4 °F 14.1 °F 23.0 °F 80% 29.88 in 2.5 mi NNW 24.2 mph 34.5 mph N/A   Haze
10:53 AM 28.4 °F 15.8 °F 23.0 °F 80% 29.89 in 3.0 mi NNW 18.4 mph 32.2 mph N/A   Haze
11:12 AM 28.4 °F 14.4 °F 21.2 °F 74% 29.90 in 3.0 mi NNW 23.0 mph 35.7 mph N/A   Haze
11:33 AM 28.4 °F 14.4 °F 21.2 °F 74% 29.92 in 4.0 mi NNW 23.0 mph 34.5 mph N/A   Haze
11:53 AM 28.4 °F 13.8 °F 21.2 °F 74% 29.92 in 4.0 mi NNW 25.3 mph 33.4 mph N/A   Haze
12:12 PM 26.6 °F 12.4 °F 21.2 °F 80% 29.93 in 4.0 mi NNW 21.9 mph 32.2 mph N/A   Haze
12:33 PM 26.6 °F 11.7 °F 21.2 °F 80% 29.94 in 5.0 mi NNW 24.2 mph 33.4 mph N/A   Haze
12:53 PM 26.6 °F 11.4 °F 19.4 °F 74% 29.94 in 4.0 mi NNW 25.3 mph 39.1 mph N/A   Haze
1:12 PM 24.8 °F 9.3 °F 19.4 °F 80% 29.94 in 4.0 mi NNW 24.2 mph 41.4 mph N/A   Haze
1:33 PM 24.8 °F 10.7 °F 19.4 °F 80% 29.95 in 4.0 mi NNW 19.6 mph 31.1 mph N/A   Haze
1:52 PM 24.8 °F 11.1 °F 19.4 °F 80% 29.95 in 4.0 mi NNW 18.4 mph 38.0 mph N/A   Haze
2:12 PM 24.8 °F 9.6 °F 19.4 °F 80% 29.96 in 7.0 mi NNW 23.0 mph 34.5 mph N/A   Scattered Clouds
2:32 PM 24.8 °F 8.4 °F 19.4 °F 80% 29.97 in 7.0 mi NNW 27.6 mph 35.7 mph N/A   Mostly Cloudy
2:52 PM 24.8 °F 9.6 °F 17.6 °F 74% 29.98 in 7.0 mi NNW 23.0 mph 33.4 mph N/A   Mostly Cloudy
3:13 PM 24.8 °F 10.3 °F 19.4 °F 80% 29.99 in 7.0 mi NNW 20.7 mph 32.2 mph N/A   Mostly Cloudy
3:32 PM 24.8 °F 10.7 °F 17.6 °F 74% 30.00 in 10.0 mi NNW 19.6 mph 33.4 mph N/A   Mostly Cloudy
3:53 PM 24.8 °F 11.5 °F 19.4 °F 80% 30.01 in 10.0 mi NNW 17.3 mph 31.1 mph N/A   Mostly Cloudy
4:12 PM 23.0 °F 9.2 °F 17.6 °F 80% 30.03 in 10.0 mi NNW 17.3 mph 26.5 mph N/A   Mostly Cloudy
4:32 PM 24.8 °F 9.0 °F 19.4 °F 80% 30.03 in 7.0 mi NNW 25.3 mph 29.9 mph N/A   Overcast
4:53 PM 23.0 °F 8.0 °F 19.4 °F 86% 30.04 in 7.0 mi NNW 20.7 mph 31.1 mph N/A   Overcast
5:12 PM 23.0 °F 8.0 °F 17.6 °F 80% 30.05 in 10.0 mi NNW 20.7 mph 29.9 mph N/A   Mostly Cloudy
5:33 PM 23.0 °F 10.6 °F 17.6 °F 80% 30.05 in 7.0 mi NNW 13.8 mph 29.9 mph N/A   Overcast
5:53 PM 23.0 °F 6.6 °F 17.6 °F 80% 30.05 in 7.0 mi NNW 25.3 mph 31.1 mph N/A   Overcast
6:12 PM 23.0 °F 8.0 °F 17.6 °F 80% 30.07 in 10.0 mi NNW 20.7 mph 29.9 mph N/A   Mostly Cloudy
6:33 PM 23.0 °F 8.3 °F 17.6 °F 80% 30.08 in 10.0 mi NNW 19.6 mph 26.5 mph N/A   Mostly Cloudy
6:53 PM 21.2 °F 6.0 °F 17.6 °F 86% 30.09 in 10.0 mi NNW 19.6 mph 27.6 mph N/A   Overcast
7:12 PM 21.2 °F 5.6 °F 17.6 °F 86% 30.10 in 10.0 mi NNW 20.7 mph 26.5 mph N/A   Overcast
7:33 PM 21.2 °F 6.4 °F 15.8 °F 80% 30.11 in 10.0 mi NNW 18.4 mph 21.9 mph N/A   Overcast
7:53 PM 21.2 °F 7.3 °F 15.8 °F 80% 30.11 in 10.0 mi NNW 16.1 mph 25.3 mph N/A   Overcast
8:12 PM 21.2 °F 6.4 °F 15.8 °F 80% 30.11 in 10.0 mi NNW 18.4 mph 24.2 mph N/A   Overcast
8:33 PM 19.4 °F 5.5 °F 14.0 °F 80% 30.12 in 10.0 mi NNW 15.0 mph 23.0 mph N/A   Overcast
8:53 PM 19.4 °F 4.5 °F 14.0 °F 80% 30.12 in 10.0 mi NNW 17.3 mph 23.0 mph N/A   Overcast
9:12 PM 19.4 °F 5.0 °F 14.0 °F 80% 30.13 in 10.0 mi NNW 16.1 mph 25.3 mph N/A   Overcast
9:33 PM 19.4 °F 6.0 °F 14.0 °F 80% 30.13 in 10.0 mi NNW 13.8 mph 24.2 mph N/A   Overcast
9:53 PM 19.4 °F 6.6 °F 14.0 °F 80% 30.15 in 10.0 mi NNW 12.7 mph 24.2 mph N/A   Overcast
10:12 PM 19.4 °F 6.0 °F 14.0 °F 80% 30.15 in 10.0 mi NNW 13.8 mph 19.6 mph N/A   Overcast
10:32 PM 19.4 °F 6.0 °F 14.0 °F 80% 30.16 in 10.0 mi NNW 13.8 mph 23.0 mph N/A   Overcast
10:53 PM 19.4 °F 5.0 °F 14.0 °F 80% 30.16 in 10.0 mi NNW 16.1 mph 26.5 mph N/A   Overcast
11:12 PM 19.4 °F 5.5 °F 14.0 °F 80% 30.17 in 10.0 mi NNW 15.0 mph 21.9 mph N/A   Overcast
11:32 PM 19.4 °F 5.0 °F 14.0 °F 80% 30.18 in 10.0 mi NNW 16.1 mph 24.2 mph N/A   Overcast
11:53 PM 17.6 °F 3.7 °F 12.2 °F 79% 30.18 in 10.0 mi NNW 13.8 mph - N/A   Overcast